Location: Newark
(25.0000°N, 73.5000°E)
Time: 04:47:03
(UTC+00:00)

Altair - Pass Details

Date: 03 March 2021
Orbit: 1501 x 1683 km, 47.2° (Epoch: 12 April)

Event Time Altitude Azimuth Distance (km) Brightness Sun altitude
Rises 10:45:33 0° 194° (SSW) 4,640 10.5 30.4°
Reaches altitude 10° 10:49:04 10° 184° (S) 3,649 9.9 29.7°
Maximum altitude 10:56:41 30° 127° (SE) 2,427 8.5 28.1°
Drops below altitude 10° 11:04:17 10° 70° (ENE) 3,664 9.0 26.5°
Sets 11:07:47 0° 60° (ENE) 4,663 9.5 25.8°
